Вернуться в каталог

STARLINK-32465

АктивенСвязьVLEO
NORAD 61716·PAYLOAD·🇺🇸 United States

Запущен Oct 30, 2024 с Cape Canaveral Space Force Station

Loading…

Ближайшие Пролёты (ближайшие 24 часа)

TLE

СвежийSource: CelesTrak SupGP

Эпоха: Sep 14, 2026, 20:58 UTC

1 61716C 24196K   26257.87409722  .00004417  00000+0  13054-3 0  2572
2 61716  53.1586 299.9336 0001320  89.7269 109.1450 15.34377269    17

Отслеживайте STARLINK-32465 в реальном времени с AllMySat

Download on the App Store